Sigfox identifier Datetime Temperature Humidity SNR
002F8EDB 2019-04-23 14:54:31 16.2 31 24.9
002F8EDB 2019-04-23 14:19:49 16.2 31 24.7
002F8EDB 2019-04-23 13:45:07 16 31 24.7
002F8EDB 2019-04-23 13:10:28 16 31 24.6
002F8EDB 2019-04-23 12:35:47 15.8 31 24.7
002F8EDB 2019-04-23 12:01:07 15.8 31 24.7
002F8EDB 2019-04-23 11:26:27 15.7 31 24.6
002F8EDB 2019-04-23 10:51:47 15.6 31 24.5
002F8EDB 2019-04-23 10:17:07 15.6 31 24.3
002F8EDB 2019-04-23 09:42:27 15.6 30 24.2
002F8EDB 2019-04-23 09:07:45 15.6 30 24
002F8EDB 2019-04-23 08:33:04 15.6 30 23.9
002F8EDB 2019-04-23 07:58:22 15.6 30 23.8
002F8EDB 2019-04-23 07:23:40 15.6 30 23.8
002F8EDB 2019-04-23 06:48:56 15.6 30 23.7
002F8EDB 2019-04-23 06:14:12 15.6 30 23.7
002F8EDB 2019-04-23 05:39:29 15.5 30 23.8
002F8EDB 2019-04-23 05:04:46 15.5 30 23.8
002F8EDB 2019-04-23 04:30:04 15.5 30 23.9
002F8EDB 2019-04-23 03:55:21 15.6 30 23.8
002F8EDB 2019-04-23 03:20:39 15.4 30 23.9
002F8EDB 2019-04-23 02:45:58 15.4 30 23.8
002F8EDB 2019-04-23 02:11:15 15.6 30 23.7
002F8EDB 2019-04-23 01:36:33 15.5 30 23.7
002F8EDB 2019-04-23 01:01:51 15.6 30 23.7
002F8EDB 2019-04-23 00:27:10 15.6 30 23.8
002F8EDB 2019-04-22 23:52:29 15.6 30 24
002F8EDB 2019-04-22 23:17:47 15.6 30 24.1
002F8EDB 2019-04-22 22:43:07 15.6 30 24.2
002F8EDB 2019-04-22 22:08:25 15.6 30 24.1
002F8EDB 2019-04-22 21:33:44 15.7 30 24.1
002F8EDB 2019-04-22 20:59:06 15.7 30 24.1
002F8EDB 2019-04-22 20:24:24 15.8 30 24.4
002F8EDB 2019-04-22 19:49:42 15.8 30 24.5
002F8EDB 2019-04-22 19:15:02 15.8 30 24.5
002F8EDB 2019-04-22 18:40:21 15.8 30 24.5
002F8EDB 2019-04-22 18:05:41 15.9 30 24.5
002F8EDB 2019-04-22 17:31:01 15.9 30 24.6
002F8EDB 2019-04-22 16:56:19 15.9 30 24.6
002F8EDB 2019-04-22 16:21:39 15.8 30 24.6
002F8EDB 2019-04-22 15:46:58 15.8 30 24.7
002F8EDB 2019-04-22 15:12:18 15.8 30 24.7
002F8EDB 2019-04-22 14:37:38 15.8 30 24.6
002F8EDB 2019-04-22 14:02:56 15.7 30 24.6
002F8EDB 2019-04-22 13:28:15 15.7 30 24.6
002F8EDB 2019-04-22 12:53:34 15.6 30 24.5
002F8EDB 2019-04-22 12:18:54 15.6 30 24.5
002F8EDB 2019-04-22 11:44:14 15.6 30 24.5
002F8EDB 2019-04-22 11:09:34 15.6 30 24.6
002F8EDB 2019-04-22 10:34:56 15.6 30 24.7
002F8EDB 2019-04-22 10:00:15 15.5 30 24.7
002F8EDB 2019-04-22 09:25:35 15.5 29 24.6
002F8EDB 2019-04-22 08:50:55 15.4 29 24.8
002F8EDB 2019-04-22 08:16:16 15.5 29 24.7
002F8EDB 2019-04-22 07:41:36 15.5 29 24.8
002F8EDB 2019-04-22 07:06:56 15.5 29 24.8
002F8EDB 2019-04-22 06:32:17 15.6 30 24.8
002F8EDB 2019-04-22 05:57:38 15.6 29 24.8
002F8EDB 2019-04-22 05:22:59 15.6 29 24.8
002F8EDB 2019-04-22 04:48:18 15.3 29 24.9
002F8EDB 2019-04-22 04:13:39 15.5 29 24.9
002F8EDB 2019-04-22 03:38:58 15.3 29 24.8
002F8EDB 2019-04-22 03:04:18 15.4 29 24.7
002F8EDB 2019-04-22 02:29:37 15.4 29 24.7
002F8EDB 2019-04-22 01:54:57 15.3 29 24.8
002F8EDB 2019-04-22 01:20:17 15.3 29 24.7
002F8EDB 2019-04-22 00:45:39 15.3 29 24.8
002F8EDB 2019-04-22 00:10:58 15.3 29 24.8
002F8EDB 2019-04-21 23:36:18 15.3 29 24.9
002F8EDB 2019-04-21 23:01:38 15.3 29 24.9
002F8EDB 2019-04-21 22:26:58 15.4 29 24.9
002F8EDB 2019-04-21 21:52:18 15.3 29 25
002F8EDB 2019-04-21 21:17:38 15.3 29 25.1
002F8EDB 2019-04-21 20:42:57 15.4 29 25.1
002F8EDB 2019-04-21 20:08:17 15.4 29 25
002F8EDB 2019-04-21 19:33:37 15.4 29 25
002F8EDB 2019-04-21 18:58:58 15.4 29 25
002F8EDB 2019-04-21 18:24:18 15.4 29 24.9
002F8EDB 2019-04-21 17:49:38 15.4 29 24.8
002F8EDB 2019-04-21 17:14:57 15.3 29 24.7
002F8EDB 2019-04-21 16:40:17 15.4 29 24.7
002F8EDB 2019-04-21 16:05:36 15.3 29 24.7
002F8EDB 2019-04-21 15:30:56 15.3 29 24.7
002F8EDB 2019-04-21 14:56:18 15.3 29 24.7
002F8EDB 2019-04-21 14:21:36 15.3 29 24.6
002F8EDB 2019-04-21 13:46:57 15.4 29 24.6
002F8EDB 2019-04-21 13:12:17 15.3 29 24.7
002F8EDB 2019-04-21 12:37:35 15.3 29 24.6
002F8EDB 2019-04-21 12:02:54 15.4 29 24.7
002F8EDB 2019-04-21 11:28:12 15.3 28 24.6
002F8EDB 2019-04-21 10:53:31 15.3 28 24.7
002F8EDB 2019-04-21 10:18:50 15.4 29 24.7
002F8EDB 2019-04-21 09:44:08 15.4 28 24.7
002F8EDB 2019-04-21 09:09:26 15.3 28 24.8
002F8EDB 2019-04-21 08:34:46 15.5 28 24.8
002F8EDB 2019-04-21 08:00:06 15.6 28 24.8
002F8EDB 2019-04-21 07:25:26 15.4 28 24.8
002F8EDB 2019-04-21 06:50:45 15.6 28 24.7
002F8EDB 2019-04-21 06:16:04 15.5 28 24.8
002F8EDB 2019-04-21 05:41:23 15.5 28 24.8
002F8EDB 2019-04-21 05:06:41 15.5 28 24.8
002F8EDB 2019-04-21 04:32:00 15.4 28 24.8
002F8EDB 2019-04-21 03:57:18 15.6 28 24.8
002F8EDB 2019-04-21 03:22:38 15.4 28 24.8
002F8EDB 2019-04-21 02:47:56 15.5 28 24.9
002F8EDB 2019-04-21 02:13:16 15.4 28 24.8
002F8EDB 2019-04-21 01:38:34 15.5 28 25.2
002F8EDB 2019-04-21 01:03:52 15.4 28 25.2
002F8EDB 2019-04-21 00:29:10 15.5 28 25.2
002F8EDB 2019-04-20 23:54:29 15.4 28 25.3
002F8EDB 2019-04-20 23:19:48 15.3 28 25.2
002F8EDB 2019-04-20 22:45:06 15.3 28 25.1
002F8EDB 2019-04-20 22:10:24 15.4 28 25.2
002F8EDB 2019-04-20 21:35:42 15.5 28 25.1
002F8EDB 2019-04-20 21:01:00 15.5 28 25.1
002F8EDB 2019-04-20 20:26:17 15.5 28 25.1
002F8EDB 2019-04-20 19:51:34 15.5 28 25
002F8EDB 2019-04-20 19:16:52 15.5 28 25
002F8EDB 2019-04-20 18:42:09 15.6 28 24.9
002F8EDB 2019-04-20 18:07:27 15.6 28 24.8
002F8EDB 2019-04-20 17:32:44 15.5 28 24.8
002F8EDB 2019-04-20 16:58:03 15.5 28 24.7
002F8EDB 2019-04-20 16:23:21 15.6 28 24.8
002F8EDB 2019-04-20 15:48:40 15.6 28 24.7
002F8EDB 2019-04-20 15:13:57 15.5 28 24.7
002F8EDB 2019-04-20 14:39:16 15.3 28 24.8
002F8EDB 2019-04-20 14:04:36 15.3 27 25.2
002F8EDB 2019-04-20 13:29:56 15.4 27 25.2
002F8EDB 2019-04-20 12:55:15 15.4 27 25.2
002F8EDB 2019-04-20 12:20:34 15.5 27 25
002F8EDB 2019-04-20 11:45:53 15.4 27 25
002F8EDB 2019-04-20 11:11:11 15.5 27 24.6
002F8EDB 2019-04-20 10:36:30 15.5 27 24.6
002F8EDB 2019-04-20 10:01:50 15.5 27 24.6
002F8EDB 2019-04-20 09:27:07 15.6 27 24.5
002F8EDB 2019-04-20 08:52:26 15.6 27 24.6
002F8EDB 2019-04-20 08:17:44 15.6 27 24.6
002F8EDB 2019-04-20 07:43:03 15.6 27 24.6
002F8EDB 2019-04-20 07:08:20 15.6 27 24.7
002F8EDB 2019-04-20 06:33:38 15.6 27 24.7
002F8EDB 2019-04-20 05:58:54 15.6 27 24.8
002F8EDB 2019-04-20 05:24:13 15.6 27 24.8
002F8EDB 2019-04-20 04:49:31 15.6 27 24.9
002F8EDB 2019-04-20 04:14:50 15.6 27 25
002F8EDB 2019-04-20 03:40:08 15.6 27 25
002F8EDB 2019-04-20 03:05:26 15.7 27 25
002F8EDB 2019-04-20 02:30:44 15.8 27 25
002F8EDB 2019-04-20 01:56:02 15.8 27 25
002F8EDB 2019-04-20 01:21:19 15.8 27 25
002F8EDB 2019-04-20 00:46:37 15.8 27 24.9
002F8EDB 2019-04-20 00:11:55 15.8 27 24.9
002F8EDB 2019-04-19 23:37:12 15.9 27 24.4
002F8EDB 2019-04-19 23:02:31 15.9 27 24.4
002F8EDB 2019-04-19 22:27:52 16 27 24.5
002F8EDB 2019-04-19 21:53:08 16 27 24.4
002F8EDB 2019-04-19 21:18:26 16 27 24.4
002F8EDB 2019-04-19 20:43:45 16 27 24.4
002F8EDB 2019-04-19 20:09:03 16 27 24.4
002F8EDB 2019-04-19 19:34:21 16.1 27 24.4
002F8EDB 2019-04-19 18:59:38 16 27 24.3
002F8EDB 2019-04-19 18:24:57 16.1 27 24.4
002F8EDB 2019-04-19 17:50:14 16.1 27 24.3
002F8EDB 2019-04-19 17:15:33 16 26 24.2
002F8EDB 2019-04-19 16:40:51 16 26 24.2
002F8EDB 2019-04-19 16:06:10 16 26 24
002F8EDB 2019-04-19 15:31:29 16 26 23.9
002F8EDB 2019-04-19 14:56:48 16 26 24
002F8EDB 2019-04-19 14:22:07 16 26 23.9
002F8EDB 2019-04-19 13:47:25 15.9 26 23.9
002F8EDB 2019-04-19 13:12:44 15.9 26 23.9
002F8EDB 2019-04-19 12:38:02 15.8 26 23.8
002F8EDB 2019-04-19 12:03:20 15.8 26 24
002F8EDB 2019-04-19 11:28:39 15.8 26 24
002F8EDB 2019-04-19 10:53:56 15.8 26 24.1
002F8EDB 2019-04-19 10:19:15 15.8 26 24.1
002F8EDB 2019-04-19 09:44:34 15.8 26 24.2
002F8EDB 2019-04-19 09:09:52 15.8 26 24.1
002F8EDB 2019-04-19 08:35:10 15.8 26 24.2
002F8EDB 2019-04-19 08:00:28 15.8 26 24.2
002F8EDB 2019-04-19 07:25:45 15.8 26 24.3
002F8EDB 2019-04-19 06:51:02 15.8 26 24.3
002F8EDB 2019-04-19 06:16:20 15.8 26 24
002F8EDB 2019-04-19 05:41:37 15.8 26 24.1
002F8EDB 2019-04-19 05:06:55 15.9 26 24.1
002F8EDB 2019-04-19 04:32:13 15.8 26 24.6
002F8EDB 2019-04-19 03:57:31 15.8 26 24.6
002F8EDB 2019-04-19 03:22:50 16 26 24.6
002F8EDB 2019-04-19 02:48:09 15.9 26 24.8
002F8EDB 2019-04-19 02:13:28 16 25 24.8
002F8EDB 2019-04-19 01:38:45 16 25 24.9
002F8EDB 2019-04-19 01:04:02 16.1 25 24.9
002F8EDB 2019-04-19 00:29:19 16.2 25 24.8
002F8EDB 2019-04-18 23:54:37 16.2 25 24.8
002F8EDB 2019-04-18 23:19:54 16.3 25 24.9
002F8EDB 2019-04-18 22:45:11 16.4 25 24.9
002F8EDB 2019-04-18 22:10:28 16.4 25 24.8
002F8EDB 2019-04-18 21:35:44 16.4 25 24.6
002F8EDB 2019-04-18 21:01:01 16.4 25 24.5
002F8EDB 2019-04-18 20:26:18 16.5 25 24.5
002F8EDB 2019-04-18 19:51:36 16.6 25 24.5
002F8EDB 2019-04-18 19:16:52 16.6 25 24.5
002F8EDB 2019-04-18 18:42:09 16.6 25 24.6
002F8EDB 2019-04-18 18:07:26 16.6 25 24.6
002F8EDB 2019-04-18 17:32:42 16.6 25 24.6
002F8EDB 2019-04-18 16:57:59 16.5 25 24.6
002F8EDB 2019-04-18 16:23:15 16.4 25 24.8
002F8EDB 2019-04-18 15:48:32 16.4 25 24.8
002F8EDB 2019-04-18 15:13:48 16.4 25 24.8
002F8EDB 2019-04-18 14:39:06 16.4 25 24.3
002F8EDB 2019-04-18 14:04:23 16.2 25 24.4
002F8EDB 2019-04-18 13:29:40 16.2 25 24.4
002F8EDB 2019-04-18 12:54:57 16.2 25 24.4
002F8EDB 2019-04-18 12:20:15 16.2 25 24.4
002F8EDB 2019-04-18 11:45:31 16.2 25 24.3
002F8EDB 2019-04-18 11:10:48 16.2 25 24.3
002F8EDB 2019-04-18 10:36:05 16.2 25 24.4
002F8EDB 2019-04-18 10:01:21 16.2 25 24.4
002F8EDB 2019-04-18 09:26:36 16 24 24.4
002F8EDB 2019-04-18 08:51:53 16.1 24 24.4
002F8EDB 2019-04-18 08:17:09 16.2 24 24.6
002F8EDB 2019-04-18 07:42:26 16.3 24 24.7
002F8EDB 2019-04-18 07:07:43 16.3 24 24.7
002F8EDB 2019-04-18 06:33:00 16.3 24 24.7
002F8EDB 2019-04-18 05:58:17 16.2 24 24.7
002F8EDB 2019-04-18 05:23:34 16.2 24 24.7
002F8EDB 2019-04-18 04:48:51 16.2 24 24.7
002F8EDB 2019-04-18 04:14:09 16.2 24 24.6
002F8EDB 2019-04-18 03:39:25 16.3 24 24.5
002F8EDB 2019-04-18 03:04:43 16.2 24 24.3
002F8EDB 2019-04-18 02:30:01 16.2 24 24.1
002F8EDB 2019-04-18 01:55:20 16.2 24 24
002F8EDB 2019-04-18 01:20:39 16.4 24 23.9
002F8EDB 2019-04-18 00:45:56 16.5 24 23.8
002F8EDB 2019-04-18 00:11:13 16.7 24 23.6
002F8EDB 2019-04-17 23:36:30 16.7 24 23.5
002F8EDB 2019-04-17 23:01:47 16.7 24 23.2
002F8EDB 2019-04-17 22:27:04 16.9 24 22.9
002F8EDB 2019-04-17 21:52:21 16.9 24 22.7
002F8EDB 2019-04-17 21:17:38 16.8 24 23.5
002F8EDB 2019-04-17 20:42:55 16.7 24 23.4
002F8EDB 2019-04-17 20:08:11 16.7 24 23.2
002F8EDB 2019-04-17 19:33:27 16.7 24 23.2
002F8EDB 2019-04-17 18:58:44 16.7 23 23.1
002F8EDB 2019-04-17 18:24:01 16.7 23 22.9
002F8EDB 2019-04-17 17:49:19 16.7 23 22.8
002F8EDB 2019-04-17 17:14:38 16.7 23 23.4
002F8EDB 2019-04-17 16:39:56 16.7 23 23.3
002F8EDB 2019-04-17 16:05:14 16.7 23 23.2
002F8EDB 2019-04-17 15:30:31 16.7 23 23
002F8EDB 2019-04-17 14:55:47 16.7 23 22.9
002F8EDB 2019-04-17 14:21:04 16.8 23 23
002F8EDB 2019-04-17 13:11:38 17.1 23 22.9
002F8EDB 2019-04-17 12:36:55 17.1 23 22.9
002F8EDB 2019-04-17 12:02:13 17.1 23 22.9
002F8EDB 2019-04-17 11:27:31 17.1 23 22.9
002F8EDB 2019-04-17 10:52:49 17.1 23 22.9
002F8EDB 2019-04-17 10:18:06 17.1 23 22.8
002F8EDB 2019-04-17 09:43:25 17.1 23 22.8
002F8EDB 2019-04-17 09:08:44 17.1 23 22.7
002F8EDB 2019-04-17 08:34:03 17.1 22 22.7
002F8EDB 2019-04-17 07:59:22 17.3 22 23.4
002F8EDB 2019-04-17 07:24:40 17.5 22 24.1
002F8EDB 2019-04-17 06:49:58 17.6 22 24
002F8EDB 2019-04-17 06:15:17 17.8 22 23.4
002F8EDB 2019-04-17 05:40:36 17.7 22 23.4
002F8EDB 2019-04-17 05:05:53 17.7 22 23.3
002F8EDB 2019-04-17 04:31:10 17.7 22 23.5
002F8EDB 2019-04-17 03:56:26 17.9 22 23.4
002F8EDB 2019-04-17 03:21:43 17.9 22 23.3
002F8EDB 2019-04-17 02:47:00 18.1 22 23.2
002F8EDB 2019-04-17 02:12:17 18.2 22 22.4
002F8EDB 2019-04-17 01:37:34 18.2 22 22.2
002F8EDB 2019-04-17 01:02:50 18.2 22 22.1
002F8EDB 2019-04-17 00:28:07 18.2 22 22.1
002F8EDB 2019-04-16 23:53:25 18.1 22 21.9
002F8EDB 2019-04-16 23:18:41 18.1 22 21.7
002F8EDB 2019-04-16 22:43:58 18.2 22 21.6
002F8EDB 2019-04-16 22:09:16 18.6 21 21.5
002F8EDB 2019-04-16 21:34:33 18.8 21 21.4
002F8EDB 2019-04-16 20:59:51 19 21 21.4
002F8EDB 2019-04-16 20:25:08 19 21 21.4
002F8EDB 2019-04-16 19:50:25 19.1 21 21.3
002F8EDB 2019-04-16 19:15:44 19.2 21 21.3
002F8EDB 2019-04-16 18:40:58 19.2 21 21.3
002F8EDB 2019-04-16 18:06:17 19.1 21 21.3
002F8EDB 2019-04-16 17:31:33 19.2 21 19.7
002F8EDB 2019-04-16 16:56:50 19.5 21 17.4
002F8EDB 2019-04-16 16:22:08 19.7 21 17.4
002F8EDB 2019-04-16 15:47:25 19.8 21 17
002F8EDB 2019-04-16 15:12:41 19.8 21 16.5
002F8EDB 2019-04-16 14:37:59 20.3 21 16
002F8EDB 2019-04-16 14:03:15 20.9 21 13.7
002F8EDB 2019-04-16 12:53:49 21 21 13.6
002F8EDB 2019-04-16 12:19:04 20.9 21 13.2
002F8EDB 2019-04-16 11:44:23 20.9 21 13.1
002F8EDB 2019-04-16 11:09:38 20.9 21 12.8
002F8EDB 2019-04-16 10:00:14 20.9 21 12.8
002F8EDB 2019-04-16 09:25:28 20.9 21 12.7
002F8EDB 2019-04-16 08:50:42 20.9 21 11.5
002F8EDB 2019-04-16 08:15:58 20.9 21 11.5
002F8EDB 2019-04-16 07:41:14 20.9 21 11.9
002F8EDB 2019-04-16 07:06:29 20.8 21 11.7
002F8EDB 2019-04-16 06:31:47 20.9 21 12
002F8EDB 2019-04-16 05:57:02 20.9 20 12
002F8EDB 2019-04-16 05:22:17 20.9 20 12.1
002F8EDB 2019-04-16 04:12:55 20.9 20 13.8
002F8EDB 2019-04-16 03:03:22 20.9 20 15.7
002F8EDB 2019-04-16 02:28:40 20.9 20 17.2
002F8EDB 2019-04-16 01:53:55 20.9 20 17.8
002F8EDB 2019-04-16 01:19:13 20.9 20 18.5
002F8EDB 2019-04-16 00:44:33 20.9 20 19.1
002F8EDB 2019-04-16 00:09:48 20.9 20 19.8
002F8EDB 2019-04-15 22:25:41 21 20 20.4
002F8EDB 2019-04-15 21:50:55 21 20 20.7
002F8EDB 2019-04-15 21:16:17 21.1 19 21.1
002F8EDB 2019-04-15 20:41:30 21.1 19 21.4
002F8EDB 2019-04-15 20:06:48 21.1 19 22.5
002F8EDB 2019-04-15 19:32:07 21 19 22.7
002F8EDB 2019-04-15 18:57:22 21.1 19 22.9
002F8EDB 2019-04-15 18:22:39 21.1 19 23.2
002F8EDB 2019-04-15 17:47:55 21.2 19 23.5
002F8EDB 2019-04-15 17:13:10 21.3 19 23.8
002F8EDB 2019-04-15 16:38:27 21.3 19 24
002F8EDB 2019-04-15 16:03:43 21.3 18 24.3
002F8EDB 2019-04-15 15:29:00 21.5 18 24.9
002F8EDB 2019-04-15 14:54:20 21.5 18 25.1
002F8EDB 2019-04-15 14:19:32 21.7 18 25.3
002F8EDB 2019-04-15 13:44:48 21.8 18 25.5
002F8EDB 2019-04-15 13:10:04 22 17 25.6
002F8EDB 2019-04-15 12:35:21 22.2 17 25.7
002F8EDB 2019-04-15 12:00:38 22.1 16 25.8
002F8EDB 2019-04-15 11:25:54 22 16 25.7
002F8EDB 2019-04-15 10:51:11 22 16 25.7
002F8EDB 2019-04-15 10:16:27 22 17 25.7
002F8EDB 2019-04-15 09:41:43 21.9 17 25.8
002F8EDB 2019-04-15 09:07:00 21.8 17 25.9
002F8EDB 2019-04-15 08:32:17 21.8 17 25.9
002F8EDB 2019-04-15 07:57:34 21.8 17 25.9
002F8EDB 2019-04-15 07:22:51 21.7 17 26
002F8EDB 2019-04-15 06:48:07 21.7 17 25.9
002F8EDB 2019-04-15 06:13:24 21.6 17 25.9
002F8EDB 2019-04-15 05:38:42 21.6 17 25.6
002F8EDB 2019-04-15 05:03:59 21.5 17 25.6
002F8EDB 2019-04-15 04:29:16 21.6 17 25.6
002F8EDB 2019-04-15 03:54:34 21.6 17 25.5
002F8EDB 2019-04-15 03:19:52 21.5 17 25.4
002F8EDB 2019-04-15 02:45:09 21.6 18 25.4
002F8EDB 2019-04-15 02:10:26 21.6 18 25.7
002F8EDB 2019-04-15 01:35:44 21.5 18 25.6
002F8EDB 2019-04-15 01:01:01 21.6 18 25.3
002F8EDB 2019-04-15 00:26:17 21.7 18 25.3
002F8EDB 2019-04-14 23:51:33 21.6 18 25.2
002F8EDB 2019-04-14 23:16:48 21.7 18 25.1
002F8EDB 2019-04-14 22:42:03 21.7 18 25.3
002F8EDB 2019-04-14 22:07:18 21.8 18 25.2
002F8EDB 2019-04-14 21:32:34 21.8 18 25.2
002F8EDB 2019-04-14 20:57:50 21.8 18 25.3
002F8EDB 2019-04-14 20:23:07 21.8 18 25.3
002F8EDB 2019-04-14 19:48:24 21.8 18 25.3
002F8EDB 2019-04-14 19:13:40 21.8 18 25.2
002F8EDB 2019-04-14 18:38:56 21.8 18 25.5
002F8EDB 2019-04-14 18:04:12 21.7 18 25.5
002F8EDB 2019-04-14 17:29:29 21.8 18 25.8
002F8EDB 2019-04-14 16:54:46 21.8 18 25.9
002F8EDB 2019-04-14 16:20:03 21.8 18 26
002F8EDB 2019-04-14 15:45:18 21.8 18 26
002F8EDB 2019-04-14 15:10:36 21.8 18 26
002F8EDB 2019-04-14 14:35:52 21.8 18 26.1
002F8EDB 2019-04-14 14:01:09 21.8 18 26.2
002F8EDB 2019-04-14 13:26:25 21.8 18 26.2
002F8EDB 2019-04-14 12:51:41 21.8 18 26.3
002F8EDB 2019-04-14 12:16:57 21.8 18 26.4
002F8EDB 2019-04-14 11:42:13 21.8 19 26.1
002F8EDB 2019-04-14 11:07:29 21.8 19 26.1
002F8EDB 2019-04-14 10:32:46 21.8 19 26.2
002F8EDB 2019-04-14 09:58:03 21.8 18 26.2
002F8EDB 2019-04-14 09:23:20 21.7 18 26.2
002F8EDB 2019-04-14 08:48:36 21.8 18 26.3
002F8EDB 2019-04-14 08:13:53 21.7 18 26.3
002F8EDB 2019-04-14 07:39:09 21.8 18 26.4
002F8EDB 2019-04-14 07:04:24 21.8 18 26.7
002F8EDB 2019-04-14 06:29:40 21.7 18 26.6
002F8EDB 2019-04-14 05:54:55 21.7 18 26.7
002F8EDB 2019-04-14 05:20:12 21.8 18 26.8
002F8EDB 2019-04-14 04:45:28 21.7 18 26.8
002F8EDB 2019-04-14 04:10:44 21.8 18 26.6
002F8EDB 2019-04-14 03:36:01 21.8 18 26.5
002F8EDB 2019-04-14 03:01:17 21.8 18 26.3
002F8EDB 2019-04-14 02:26:34 21.8 18 26.4
002F8EDB 2019-04-14 01:51:51 21.8 18 26.6
002F8EDB 2019-04-14 01:17:07 21.8 18 26.6
002F8EDB 2019-04-14 00:42:22 21.9 18 26.6
002F8EDB 2019-04-14 00:07:37 21.8 18 26.6
002F8EDB 2019-04-13 23:32:53 21.8 18 26.6
002F8EDB 2019-04-13 22:58:10 22 18 26.8
002F8EDB 2019-04-13 22:23:25 21.9 18 26.7
002F8EDB 2019-04-13 21:48:41 21.9 18 26.6
002F8EDB 2019-04-13 21:13:57 22 18 26.6
002F8EDB 2019-04-13 20:39:12 21.9 18 26.6
002F8EDB 2019-04-13 20:04:28 22 18 26.7
002F8EDB 2019-04-13 19:29:44 22 18 26.6
002F8EDB 2019-04-13 18:55:00 22 18 26.7
002F8EDB 2019-04-13 18:20:16 22 18 26.7
002F8EDB 2019-04-13 17:45:32 22 18 26.6
002F8EDB 2019-04-13 17:10:49 22.1 18 26.6
002F8EDB 2019-04-13 16:36:05 22.1 18 26.3
002F8EDB 2019-04-13 16:01:21 22.2 18 26.2
002F8EDB 2019-04-13 15:26:37 22.2 18 26.1
002F8EDB 2019-04-13 14:51:54 22.2 18 26
002F8EDB 2019-04-13 14:17:11 22.2 18 25.9
002F8EDB 2019-04-13 13:42:28 22.2 18 25.8
002F8EDB 2019-04-13 13:07:43 22.2 18 25.8
002F8EDB 2019-04-13 12:32:58 22.2 18 25.6
002F8EDB 2019-04-13 11:58:14 22.2 18 25.7
002F8EDB 2019-04-13 11:23:30 22.2 18 25.3
002F8EDB 2019-04-13 10:48:46 22.2 18 25.3
002F8EDB 2019-04-13 10:14:01 22.2 18 25.5
002F8EDB 2019-04-13 09:39:18 22.2 18 25.4
002F8EDB 2019-04-13 09:04:33 22.2 18 25.3
002F8EDB 2019-04-13 08:29:50 22.2 18 25.2
002F8EDB 2019-04-13 07:55:07 22.2 18 25.2
002F8EDB 2019-04-13 07:20:24 22.2 18 25.6
002F8EDB 2019-04-13 06:45:41 22.2 18 25.6
002F8EDB 2019-04-13 06:10:56 22.2 18 25.4
002F8EDB 2019-04-13 05:36:14 22.2 18 25.4
002F8EDB 2019-04-13 05:01:30 22.2 18 25.7
002F8EDB 2019-04-13 04:26:47 22.2 18 25.9
002F8EDB 2019-04-13 03:52:03 22.2 18 25.8
002F8EDB 2019-04-13 03:17:20 22.2 18 25.7
002F8EDB 2019-04-13 02:42:36 22.2 18 25.8
002F8EDB 2019-04-13 02:07:52 22.2 19 25.8
002F8EDB 2019-04-13 01:33:09 22.3 19 25.9
002F8EDB 2019-04-13 00:58:25 22.4 19 26
002F8EDB 2019-04-13 00:23:40 22.4 19 26
002F8EDB 2019-04-12 23:48:56 22.4 19 26.1
002F8EDB 2019-04-12 23:14:13 22.4 19 26.2
002F8EDB 2019-04-12 22:39:28 22.4 19 26.4
002F8EDB 2019-04-12 22:04:44 22.6 20 26.5
002F8EDB 2019-04-12 21:30:01 22.6 20 26.5
002F8EDB 2019-04-12 20:55:16 22.6 19 26.6
002F8EDB 2019-04-12 20:20:32 22.6 19 26.7
002F8EDB 2019-04-12 19:45:48 22.6 19 26.6
002F8EDB 2019-04-12 19:11:04 22.6 19 26.6
002F8EDB 2019-04-12 18:36:20 22.8 18 26.8
002F8EDB 2019-04-12 18:01:34 22.8 17 26.9
002F8EDB 2019-04-12 17:26:48 22.8 17 27.1
002F8EDB 2019-04-12 16:52:03 22.8 18 26.4
002F8EDB 2019-04-12 16:17:17 22.8 18 26.4
002F8EDB 2019-04-12 15:42:32 22.6 19 27.2
002F8EDB 2019-04-12 15:07:46 22.4 19 27.4
002F8EDB 2019-04-12 14:33:00 22.2 19 25.9
002F8EDB 2019-04-12 13:58:15 21.7 21 19.5
002F8EDB 2019-04-12 13:23:29 21.1 23 12.5